Flag for Germany Weather past 2 weeks in Ratingen, North Rhine-Westphalia, Germany

Now
37 °F

Rain showers. Partly sunny.


Feels Like: 30 °F
Forecast: 36 / 45 °F
Wind: 12 mph from Southwest

Location: Duesseldorf

Current Time: Mar 2, 2015 at 5:00:46 PM

Latest Report: Mar 2, 2015 at 4:20 PM


Visibility: N/A

Pressure: 29.74 "Hg

Humidity: 93%

Dew point: 36 °F

Location of RatingenLocation

Historic Weather in Ratingen — Graph

°F

Ratingen temperature yesterday

Maximum temperature yesterday: 52 °F (at 10:50 AM)
Minimum temperature yesterday: 41 °F (at 3:50 AM)
Average temperature yesterday: 47 °F

Past Weeks' High & Low Weather Summary

 TemperatureHumidityPressure
High52 °F (Mar 1, 10:50 AM)100% (Feb 17, 6:20 AM)30.77 "Hg (Feb 17, 6:20 AM)
Low28 °F (Feb 28, 4:20 AM)43% (Feb 28, 3:50 PM)29.36 "Hg (Feb 21, 3:50 AM)
Average40 °F81%29.94 "Hg
* Reported Feb 15 3:20 PM — Mar 2 3:50 PM, Ratingen, Weather by CustomWeather, © 2015

Note: Actual official high and low records may vary slightly from our data, if they occured in-between our weather recording intervals... More about our weather records

Advertising

Ratingen weather history for previous 24 hours

 ConditionsComfort  
Time TempWeatherWind HumidityBarometerVisibility
3:50 PM
Mon, Mar 2
37 °FRain showers. Mostly cloudy.20 mph87%29.74 "Hg6 mi
3:20 PM45 °FSprinkles. Broken clouds.22 mph53%29.68 "HgN/A
2:50 PM48 °FScattered showers. Partly sunny.17 mph46%29.68 "HgN/A
2:20 PM48 °FBroken clouds.18 mph46%29.68 "HgN/A
1:50 PM48 °FScattered clouds.18 mph46%29.68 "HgN/A
1:20 PM50 °FScattered clouds.18 mph47%29.68 "HgN/A
12:50 PM48 °FScattered clouds.17 mph46%29.68 "HgN/A
12:20 PM46 °FPassing clouds.17 mph50%29.68 "HgN/A
11:50 AM46 °FPassing clouds.18 mph50%29.68 "HgN/A
11:20 AM46 °FPassing clouds.15 mph50%29.68 "HgN/A
10:50 AM46 °FPassing clouds.17 mph57%29.68 "HgN/A
10:20 AM45 °FPassing clouds.17 mph61%29.68 "HgN/A
9:50 AM45 °FPassing clouds.16 mph61%29.65 "HgN/A
9:20 AM43 °FPassing clouds.15 mph66%29.65 "HgN/A
8:50 AM41 °FPassing clouds.10 mph66%29.65 "HgN/A
8:20 AM41 °FPassing clouds.8 mph70%29.62 "HgN/A
7:50 AM39 °FPassing clouds.9 mph70%29.62 "HgN/A
7:20 AM41 °FPassing clouds.8 mph66%29.62 "HgN/A
6:50 AM41 °FPassing clouds.10 mph66%29.59 "HgN/A
6:20 AM41 °FPassing clouds.9 mph70%29.59 "HgN/A
5:50 AM41 °FPassing clouds.13 mph70%29.59 "HgN/A
5:20 AM41 °FPassing clouds.12 mph70%29.56 "HgN/A
4:50 AM43 °FPassing clouds.15 mph66%29.56 "HgN/A
4:20 AM43 °FPassing clouds.16 mph66%29.56 "HgN/A
3:50 AM43 °FPassing clouds.17 mph66%29.53 "HgN/A
3:20 AM45 °FPassing clouds.18 mph66%29.53 "HgN/A
2:50 AM45 °FPassing clouds.22 mph66%29.50 "HgN/A
2:20 AM46 °FPartly cloudy.14 mph71%29.47 "HgN/A
1:50 AM46 °FPassing clouds.17 mph76%29.47 "HgN/A
1:20 AM46 °FSprinkles. Partly cloudy.21 mph82%29.45 "HgN/A
12:50 AM46 °FPassing clouds.23 mph76%29.45 "HgN/A
12:20 AM48 °FSprinkles. Passing clouds.17 mph66%29.45 "HgN/A
11:50 PM
Sun, Mar 1
48 °FPassing clouds.15 mph71%29.47 "HgN/A
11:20 PM46 °FPassing clouds.10 mph71%29.50 "HgN/A
10:50 PM46 °FPassing clouds.9 mph76%29.50 "HgN/A
10:20 PM46 °FPartly cloudy.10 mph76%29.53 "HgN/A
9:50 PM46 °FSprinkles. Passing clouds.12 mph76%29.56 "HgN/A
9:20 PM46 °FClear.10 mph76%29.56 "Hg10 mi
8:20 PM45 °FClear.14 mph76%29.59 "Hg10 mi
7:50 PM45 °FPassing clouds.13 mph71%29.62 "HgN/A
7:20 PM46 °FPassing clouds.13 mph71%29.62 "HgN/A
6:50 PM46 °FSprinkles. Passing clouds.12 mph71%29.62 "HgN/A
6:20 PM48 °FScattered showers. Passing clouds.17 mph66%29.62 "HgN/A
5:50 PM50 °FScattered showers. Scattered clouds.16 mph58%29.62 "HgN/A
5:20 PM50 °FPassing clouds.21 mph54%29.59 "HgN/A
Weather by CustomWeather, © 2015

See weather overviewHow to use our weather pages